owner,sensor,date,latitude,longitude,vertical_datum,wind_speed,wind_to_direction,wind_speed_of_gust,qcFlag 
DISL,ioos:station:DISL:CATA:1,2013-06-01T00:00:00Z,30.3085,-88.1395,0.0,7.3,137.0,99.0,'11111222,11111222,11144222' 
DISL,ioos:station:DISL:CATA:1,2013-06-01T00:30:00Z,30.3085,-88.1395,0.0,7.3,132.0,99.0,'11111222,11111222,11144222' 
DISL,ioos:station:DISL:CATA:1,2013-06-01T01:00:00Z,30.3085,-88.1395,0.0,7.7,135.0,99.0,'11111222,11111222,11144222' 
DISL,ioos:station:DISL:CATA:1,2013-06-01T01:30:00Z,30.3085,-88.1395,0.0,7.0,134.0,99.0,'11111222,11111222,11144222' 
DISL,ioos:station:DISL:CATA:1,2013-06-01T02:00:00Z,30.3085,-88.1395,0.0,6.8,141.0,99.0,'11111222,11111222,11144222' 
DISL,ioos:station:DISL:CATA:1,2013-06-01T02:30:00Z,30.3085,-88.1395,0.0,7.1,145.0,99.0,'11111222,11111222,11144222' 
DISL,ioos:station:DISL:CATA:1,2013-06-01T03:00:00Z,30.3085,-88.1395,0.0,7.3,138.0,99.0,'11111222,11111222,11144222' 
DISL,ioos:station:DISL:CATA:1,2013-06-01T03:30:00Z,30.3085,-88.1395,0.0,6.6,143.0,99.0,'11111222,11111222,11144222' 
DISL,ioos:station:DISL:CATA:1,2013-06-01T04:00:00Z,30.3085,-88.1395,0.0,6.7,139.0,99.0,'11111222,11111222,11144222' 
DISL,ioos:station:DISL:CATA:1,2013-06-01T04:30:00Z,30.3085,-88.1395,0.0,7.2,137.0,99.0,'11111222,11111222,11144222' 
DISL,ioos:station:DISL:CATA:1,2013-06-01T05:00:00Z,30.3085,-88.1395,0.0,7.6,142.0,99.0,'11111222,11111222,11144222' 
DISL,ioos:station:DISL:CATA:1,2013-06-01T05:30:00Z,30.3085,-88.1395,0.0,7.3,135.0,99.0,'11111222,11111222,11144222' 
DISL,ioos:station:DISL:CATA:1,2013-06-01T06:30:00Z,30.3085,-88.1395,0.0,7.6,146.0,99.0,'11111222,11111222,11144222' 
DISL,ioos:station:DISL:CATA:1,2013-06-01T07:00:00Z,30.3085,-88.1395,0.0,6.7,143.0,99.0,'11111222,11111222,11144222' 
DISL,ioos:station:DISL:CATA:1,2013-06-01T07:30:00Z,30.3085,-88.1395,0.0,6.9,149.0,99.0,'11111222,11111222,11144222' 
DISL,ioos:station:DISL:CATA:1,2013-06-01T08:00:00Z,30.3085,-88.1395,0.0,6.4,151.0,99.0,'11111222,11111222,11144222' 
DISL,ioos:station:DISL:CATA:1,2013-06-01T08:30:00Z,30.3085,-88.1395,0.0,5.7,143.0,99.0,'11111222,11111222,11144222' 
DISL,ioos:station:DISL:CATA:1,2013-06-01T09:00:00Z,30.3085,-88.1395,0.0,5.3,148.0,99.0,'11111222,11111222,11144222' 
DISL,ioos:station:DISL:CATA:1,2013-06-01T09:30:00Z,30.3085,-88.1395,0.0,5.8,142.0,99.0,'11111222,11111222,11144222' 
DISL,ioos:station:DISL:CATA:1,2013-06-01T10:00:00Z,30.3085,-88.1395,0.0,5.6,141.0,99.0,'11111222,11111222,11144222' 
DISL,ioos:station:DISL:CATA:1,2013-06-01T10:30:00Z,30.3085,-88.1395,0.0,6.1,143.0,99.0,'11111222,11111222,11144222' 
DISL,ioos:station:DISL:CATA:1,2013-06-01T11:00:00Z,30.3085,-88.1395,0.0,6.4,139.0,99.0,'11111222,11111222,11144222' 
DISL,ioos:station:DISL:CATA:1,2013-06-01T11:30:00Z,30.3085,-88.1395,0.0,6.6,143.0,99.0,'11111222,11111222,11144222' 
DISL,ioos:station:DISL:CATA:1,2013-06-01T12:00:00Z,30.3085,-88.1395,0.0,5.9,139.0,99.0,'11111222,11111222,11144222' 
DISL,ioos:station:DISL:CATA:1,2013-06-01T12:30:00Z,30.3085,-88.1395,0.0,6.8,145.0,99.0,'11111222,11111222,11144222' 
DISL,ioos:station:DISL:CATA:1,2013-06-01T13:00:00Z,30.3085,-88.1395,0.0,6.6,149.0,99.0,'11111222,11111222,11144222' 
DISL,ioos:station:DISL:CATA:1,2013-06-01T13:30:00Z,30.3085,-88.1395,0.0,6.8,136.0,99.0,'11111222,11111222,11144222' 
DISL,ioos:station:DISL:CATA:1,2013-06-01T14:00:00Z,30.3085,-88.1395,0.0,7.5,136.0,99.0,'11111222,11111222,11144222' 
DISL,ioos:station:DISL:CATA:1,2013-06-01T14:30:00Z,30.3085,-88.1395,0.0,7.2,135.0,99.0,'11111222,11111222,11144222' 
DISL,ioos:station:DISL:CATA:1,2013-06-01T15:00:00Z,30.3085,-88.1395,0.0,7.1,138.0,99.0,'11111222,11111222,11144222' 
DISL,ioos:station:DISL:CATA:1,2013-06-01T15:30:00Z,30.3085,-88.1395,0.0,7.4,138.0,99.0,'11111222,11111222,11144222' 
DISL,ioos:station:DISL:CATA:1,2013-06-01T16:00:00Z,30.3085,-88.1395,0.0,7.3,136.0,99.0,'11111222,11111222,11144222' 
DISL,ioos:station:DISL:CATA:1,2013-06-01T16:30:00Z,30.3085,-88.1395,0.0,7.6,140.0,99.0,'11111222,11111222,11144222' 
DISL,ioos:station:DISL:CATA:1,2013-06-01T17:00:00Z,30.3085,-88.1395,0.0,7.8,141.0,99.0,'11111222,11111222,11144222' 
DISL,ioos:station:DISL:CATA:1,2013-06-01T17:30:00Z,30.3085,-88.1395,0.0,7.6,145.0,99.0,'11111222,11111222,11144222' 
DISL,ioos:station:DISL:CATA:1,2013-06-01T18:00:00Z,30.3085,-88.1395,0.0,6.7,147.0,99.0,'11111222,11111222,11144222' 
DISL,ioos:station:DISL:CATA:1,2013-06-01T18:30:00Z,30.3085,-88.1395,0.0,6.6,147.0,99.0,'11111222,11111222,11144222' 
DISL,ioos:station:DISL:CATA:1,2013-06-01T19:00:00Z,30.3085,-88.1395,0.0,6.8,146.0,99.0,'11111222,11111222,11144222' 
DISL,ioos:station:DISL:CATA:1,2013-06-01T19:30:00Z,30.3085,-88.1395,0.0,6.9,147.0,99.0,'11111222,11111222,11144222' 
DISL,ioos:station:DISL:CATA:1,2013-06-01T20:00:00Z,30.3085,-88.1395,0.0,5.6,149.0,99.0,'11111222,11111222,11144222' 
DISL,ioos:station:DISL:CATA:1,2013-06-01T20:30:00Z,30.3085,-88.1395,0.0,6.8,159.0,99.0,'11111222,11111222,11144222' 
DISL,ioos:station:DISL:CATA:1,2013-06-01T21:00:00Z,30.3085,-88.1395,0.0,6.7,161.0,99.0,'11111222,11111222,11144222' 
DISL,ioos:station:DISL:CATA:1,2013-06-01T21:30:00Z,30.3085,-88.1395,0.0,6.8,165.0,99.0,'11111222,11111222,11144222' 
DISL,ioos:station:DISL:CATA:1,2013-06-01T22:00:00Z,30.3085,-88.1395,0.0,6.7,160.0,99.0,'11111222,11111222,11144222' 
DISL,ioos:station:DISL:CATA:1,2013-06-01T22:30:00Z,30.3085,-88.1395,0.0,6.4,167.0,99.0,'11111222,11111222,11144222' 
DISL,ioos:station:DISL:CATA:1,2013-06-01T23:00:00Z,30.3085,-88.1395,0.0,5.7,162.0,99.0,'11111222,11111222,11144222' 
DISL,ioos:station:DISL:CATA:1,2013-06-01T23:30:00Z,30.3085,-88.1395,0.0,5.3,155.0,99.0,'11111222,11111222,11144222' 
DISL,ioos:station:DISL:CATA:1,2013-06-02T00:00:00Z,30.3085,-88.1395,0.0,5.6,159.0,99.0,'11111222,11111222,11144222' 
DISL,ioos:station:DISL:CATA:1,2013-06-02T00:30:00Z,30.3085,-88.1395,0.0,5.1,141.0,99.0,'11111222,11111222,11144222' 
DISL,ioos:station:DISL:CATA:1,2013-06-02T01:00:00Z,30.3085,-88.1395,0.0,5.9,152.0,99.0,'11111222,11111222,11144222' 
DISL,ioos:station:DISL:CATA:1,2013-06-02T01:30:00Z,30.3085,-88.1395,0.0,4.9,153.0,99.0,'11111222,11111222,11144222' 
DISL,ioos:station:DISL:CATA:1,2013-06-02T02:00:00Z,30.3085,-88.1395,0.0,5.8,154.0,99.0,'11111222,11111222,11144222' 
DISL,ioos:station:DISL:CATA:1,2013-06-02T02:30:00Z,30.3085,-88.1395,0.0,5.3,153.0,99.0,'11111222,11111222,11144222' 
DISL,ioos:station:DISL:CATA:1,2013-06-02T03:00:00Z,30.3085,-88.1395,0.0,5.3,148.0,99.0,'11111222,11111222,11144222' 
DISL,ioos:station:DISL:CATA:1,2013-06-02T03:30:00Z,30.3085,-88.1395,0.0,4.7,146.0,99.0,'11111222,11111222,11144222' 
DISL,ioos:station:DISL:CATA:1,2013-06-02T04:00:00Z,30.3085,-88.1395,0.0,5.6,149.0,99.0,'11111222,11111222,11144222' 
DISL,ioos:station:DISL:CATA:1,2013-06-02T04:30:00Z,30.3085,-88.1395,0.0,5.0,149.0,99.0,'11111222,11111222,11144222' 
DISL,ioos:station:DISL:CATA:1,2013-06-02T05:00:00Z,30.3085,-88.1395,0.0,5.2,151.0,99.0,'11111222,11111222,11144222' 
DISL,ioos:station:DISL:CATA:1,2013-06-02T05:30:00Z,30.3085,-88.1395,0.0,4.4,155.0,99.0,'11111222,11111222,11144222' 
DISL,ioos:station:DISL:CATA:1,2013-06-02T06:30:00Z,30.3085,-88.1395,0.0,5.8,168.0,99.0,'11111222,11111222,11144222' 
DISL,ioos:station:DISL:CATA:1,2013-06-02T07:00:00Z,30.3085,-88.1395,0.0,5.6,167.0,99.0,'11111222,11111222,11144222' 
DISL,ioos:station:DISL:CATA:1,2013-06-02T07:30:00Z,30.3085,-88.1395,0.0,5.3,169.0,99.0,'11111222,11111222,11144222' 
DISL,ioos:station:DISL:CATA:1,2013-06-02T08:00:00Z,30.3085,-88.1395,0.0,4.7,181.0,99.0,'11111222,11111222,11144222' 
DISL,ioos:station:DISL:CATA:1,2013-06-02T08:30:00Z,30.3085,-88.1395,0.0,4.8,200.0,99.0,'11111222,11111222,11144222' 
DISL,ioos:station:DISL:CATA:1,2013-06-02T09:00:00Z,30.3085,-88.1395,0.0,4.3,205.0,99.0,'11111222,11111222,11144222' 
DISL,ioos:station:DISL:CATA:1,2013-06-02T09:30:00Z,30.3085,-88.1395,0.0,4.1,211.0,99.0,'11111222,11111222,11144222' 
DISL,ioos:station:DISL:CATA:1,2013-06-02T10:00:00Z,30.3085,-88.1395,0.0,3.0,251.0,99.0,'11111222,11111222,11144222' 
DISL,ioos:station:DISL:CATA:1,2013-06-02T10:30:00Z,30.3085,-88.1395,0.0,3.2,273.0,99.0,'11111222,11111222,11144222' 
DISL,ioos:station:DISL:CATA:1,2013-06-02T11:00:00Z,30.3085,-88.1395,0.0,3.2,298.0,99.0,'11111222,11111222,11144222' 
DISL,ioos:station:DISL:CATA:1,2013-06-02T11:30:00Z,30.3085,-88.1395,0.0,2.0,1.0,99.0,'11111222,11111222,11144222' 
DISL,ioos:station:DISL:CATA:1,2013-06-02T12:00:00Z,30.3085,-88.1395,0.0,0.9,2.0,99.0,'11111222,11111222,11144222' 
DISL,ioos:station:DISL:CATA:1,2013-06-02T12:30:00Z,30.3085,-88.1395,0.0,1.1,42.0,99.0,'11111222,11111222,11144222' 
DISL,ioos:station:DISL:CATA:1,2013-06-02T13:00:00Z,30.3085,-88.1395,0.0,1.0,45.0,99.0,'11111222,11111222,11144222' 
DISL,ioos:station:DISL:CATA:1,2013-06-02T13:30:00Z,30.3085,-88.1395,0.0,5.5,14.0,99.0,'11111222,11111222,11144222' 
DISL,ioos:station:DISL:CATA:1,2013-06-02T14:00:00Z,30.3085,-88.1395,0.0,3.7,17.0,99.0,'11111222,11111222,11144222' 
DISL,ioos:station:DISL:CATA:1,2013-06-02T14:30:00Z,30.3085,-88.1395,0.0,6.4,36.0,99.0,'11111222,11111222,11144222' 
DISL,ioos:station:DISL:CATA:1,2013-06-02T15:00:00Z,30.3085,-88.1395,0.0,6.0,41.0,99.0,'11111222,11111222,11144222' 
DISL,ioos:station:DISL:CATA:1,2013-06-02T15:30:00Z,30.3085,-88.1395,0.0,4.5,45.0,99.0,'11111222,11111222,11144222' 
DISL,ioos:station:DISL:CATA:1,2013-06-02T16:00:00Z,30.3085,-88.1395,0.0,3.0,60.0,99.0,'11111222,11111222,11144222' 
DISL,ioos:station:DISL:CATA:1,2013-06-02T16:30:00Z,30.3085,-88.1395,0.0,2.4,104.0,99.0,'11111222,11111222,11144222' 
DISL,ioos:station:DISL:CATA:1,2013-06-02T17:00:00Z,30.3085,-88.1395,0.0,2.9,149.0,99.0,'11111222,11111222,11144222' 
DISL,ioos:station:DISL:CATA:1,2013-06-02T17:30:00Z,30.3085,-88.1395,0.0,2.8,146.0,99.0,'11111222,11111222,11144222' 
DISL,ioos:station:DISL:CATA:1,2013-06-02T18:00:00Z,30.3085,-88.1395,0.0,4.7,176.0,99.0,'11111222,11111222,11144222' 
DISL,ioos:station:DISL:CATA:1,2013-06-02T18:30:00Z,30.3085,-88.1395,0.0,4.5,164.0,99.0,'11111222,11111222,11144222' 
DISL,ioos:station:DISL:CATA:1,2013-06-02T19:00:00Z,30.3085,-88.1395,0.0,5.7,150.0,99.0,'11111222,11111222,11144222' 
DISL,ioos:station:DISL:CATA:1,2013-06-02T19:30:00Z,30.3085,-88.1395,0.0,7.1,168.0,99.0,'11111222,11111222,11144222' 
DISL,ioos:station:DISL:CATA:1,2013-06-02T20:00:00Z,30.3085,-88.1395,0.0,6.7,178.0,99.0,'11111222,11111222,11144222' 
DISL,ioos:station:DISL:CATA:1,2013-06-02T20:30:00Z,30.3085,-88.1395,0.0,6.2,167.0,99.0,'11111222,11111222,11144222' 
DISL,ioos:station:DISL:CATA:1,2013-06-02T21:00:00Z,30.3085,-88.1395,0.0,5.0,167.0,99.0,'11111222,11111222,11144222' 
DISL,ioos:station:DISL:CATA:1,2013-06-02T21:30:00Z,30.3085,-88.1395,0.0,6.5,178.0,99.0,'11111222,11111222,11144222' 
DISL,ioos:station:DISL:CATA:1,2013-06-02T22:00:00Z,30.3085,-88.1395,0.0,7.5,196.0,99.0,'11111222,11111222,11144222' 
DISL,ioos:station:DISL:CATA:1,2013-06-02T22:30:00Z,30.3085,-88.1395,0.0,7.3,201.0,99.0,'11111222,11111222,11144222' 
DISL,ioos:station:DISL:CATA:1,2013-06-02T23:00:00Z,30.3085,-88.1395,0.0,7.8,210.0,99.0,'11111222,11111222,11144222' 
DISL,ioos:station:DISL:CATA:1,2013-06-02T23:30:00Z,30.3085,-88.1395,0.0,8.1,200.0,99.0,'11111222,11111222,11144222' 
DISL,ioos:station:DISL:CATA:1,2013-06-03T00:00:00Z,30.3085,-88.1395,0.0,8.0,203.0,99.0,'11111222,11111222,11144222' 
DISL,ioos:station:DISL:CATA:1,2013-06-03T00:30:00Z,30.3085,-88.1395,0.0,6.6,209.0,99.0,'11111222,11111222,11144222' 
DISL,ioos:station:DISL:CATA:1,2013-06-03T01:00:00Z,30.3085,-88.1395,0.0,5.9,199.0,99.0,'11111222,11111222,11144222' 
DISL,ioos:station:DISL:CATA:1,2013-06-03T01:30:00Z,30.3085,-88.1395,0.0,4.7,211.0,99.0,'11111222,11111222,11144222' 
DISL,ioos:station:DISL:CATA:1,2013-06-03T02:00:00Z,30.3085,-88.1395,0.0,3.7,201.0,99.0,'11111222,11111222,11144222' 
DISL,ioos:station:DISL:CATA:1,2013-06-03T02:30:00Z,30.3085,-88.1395,0.0,2.0,173.0,99.0,'11111222,11111222,11144222' 
DISL,ioos:station:DISL:CATA:1,2013-06-03T03:00:00Z,30.3085,-88.1395,0.0,5.1,51.0,99.0,'11111222,11111222,11144222' 
DISL,ioos:station:DISL:CATA:1,2013-06-03T03:30:00Z,30.3085,-88.1395,0.0,5.3,34.0,99.0,'11111222,11111222,11144222' 
DISL,ioos:station:DISL:CATA:1,2013-06-03T04:00:00Z,30.3085,-88.1395,0.0,2.8,333.0,99.0,'11111222,11111222,11144222' 
DISL,ioos:station:DISL:CATA:1,2013-06-03T04:30:00Z,30.3085,-88.1395,0.0,1.0,32.0,99.0,'11111222,11111222,11144222' 
DISL,ioos:station:DISL:CATA:1,2013-06-03T05:00:00Z,30.3085,-88.1395,0.0,1.5,356.0,99.0,'11111222,11111222,11144222' 
DISL,ioos:station:DISL:CATA:1,2013-06-03T05:30:00Z,30.3085,-88.1395,0.0,1.4,127.0,99.0,'11111222,11111222,11144222' 
DISL,ioos:station:DISL:CATA:1,2013-06-03T06:30:00Z,30.3085,-88.1395,0.0,1.7,116.0,99.0,'11111222,11111222,11144222' 
DISL,ioos:station:DISL:CATA:1,2013-06-03T07:00:00Z,30.3085,-88.1395,0.0,1.3,44.0,99.0,'11111222,11111222,11144222' 
DISL,ioos:station:DISL:CATA:1,2013-06-03T07:30:00Z,30.3085,-88.1395,0.0,1.1,35.0,99.0,'11111222,11111222,11144222' 
DISL,ioos:station:DISL:CATA:1,2013-06-03T08:00:00Z,30.3085,-88.1395,0.0,2.2,83.0,99.0,'11111222,11111222,11144222' 
DISL,ioos:station:DISL:CATA:1,2013-06-03T08:30:00Z,30.3085,-88.1395,0.0,2.0,139.0,99.0,'11111222,11111222,11144222' 
DISL,ioos:station:DISL:CATA:1,2013-06-03T09:00:00Z,30.3085,-88.1395,0.0,2.9,170.0,99.0,'11111222,11111222,11144222' 
DISL,ioos:station:DISL:CATA:1,2013-06-03T09:30:00Z,30.3085,-88.1395,0.0,2.7,166.0,99.0,'11111222,11111222,11144222' 
DISL,ioos:station:DISL:CATA:1,2013-06-03T10:00:00Z,30.3085,-88.1395,0.0,3.1,165.0,99.0,'11111222,11111222,11144222' 
DISL,ioos:station:DISL:CATA:1,2013-06-03T10:30:00Z,30.3085,-88.1395,0.0,3.2,188.0,99.0,'11111222,11111222,11144222' 
DISL,ioos:station:DISL:CATA:1,2013-06-03T11:00:00Z,30.3085,-88.1395,0.0,4.3,192.0,99.0,'11111222,11111222,11144222' 
DISL,ioos:station:DISL:CATA:1,2013-06-03T11:30:00Z,30.3085,-88.1395,0.0,4.1,208.0,99.0,'11111222,11111222,11144222' 
DISL,ioos:station:DISL:CATA:1,2013-06-03T12:00:00Z,30.3085,-88.1395,0.0,4.6,208.0,99.0,'11111222,11111222,11144222' 
DISL,ioos:station:DISL:CATA:1,2013-06-03T12:30:00Z,30.3085,-88.1395,0.0,4.2,214.0,99.0,'11111222,11111222,11144222' 
DISL,ioos:station:DISL:CATA:1,2013-06-03T13:00:00Z,30.3085,-88.1395,0.0,4.2,225.0,99.0,'11111222,11111222,11144222' 
DISL,ioos:station:DISL:CATA:1,2013-06-03T13:30:00Z,30.3085,-88.1395,0.0,3.9,233.0,99.0,'11111222,11111222,11144222' 
DISL,ioos:station:DISL:CATA:1,2013-06-03T14:00:00Z,30.3085,-88.1395,0.0,3.5,243.0,99.0,'11111222,11111222,11144222' 
DISL,ioos:station:DISL:CATA:1,2013-06-03T14:30:00Z,30.3085,-88.1395,0.0,3.3,239.0,99.0,'11111222,11111222,11144222' 
DISL,ioos:station:DISL:CATA:1,2013-06-03T15:00:00Z,30.3085,-88.1395,0.0,4.0,250.0,99.0,'11111222,11111222,11144222' 
DISL,ioos:station:DISL:CATA:1,2013-06-03T15:30:00Z,30.3085,-88.1395,0.0,3.3,243.0,99.0,'11111222,11111222,11144222' 
DISL,ioos:station:DISL:CATA:1,2013-06-03T16:00:00Z,30.3085,-88.1395,0.0,2.8,233.0,99.0,'11111222,11111222,11144222' 
DISL,ioos:station:DISL:CATA:1,2013-06-03T16:30:00Z,30.3085,-88.1395,0.0,2.3,241.0,99.0,'11111222,11111222,11144222' 
DISL,ioos:station:DISL:CATA:1,2013-06-03T17:00:00Z,30.3085,-88.1395,0.0,1.4,128.0,99.0,'11111222,11111222,11144222' 
DISL,ioos:station:DISL:CATA:1,2013-06-03T17:30:00Z,30.3085,-88.1395,0.0,2.2,76.0,99.0,'11111222,11111222,11144222' 
DISL,ioos:station:DISL:CATA:1,2013-06-03T18:00:00Z,30.3085,-88.1395,0.0,2.6,106.0,99.0,'11111222,11111222,11144222' 
DISL,ioos:station:DISL:CATA:1,2013-06-03T18:30:00Z,30.3085,-88.1395,0.0,2.8,116.0,99.0,'11111222,11111222,11144222' 
DISL,ioos:station:DISL:CATA:1,2013-06-03T19:00:00Z,30.3085,-88.1395,0.0,2.2,114.0,99.0,'11111222,11111222,11144222' 
DISL,ioos:station:DISL:CATA:1,2013-06-03T19:30:00Z,30.3085,-88.1395,0.0,2.9,188.0,99.0,'11111222,11111222,11144222' 
DISL,ioos:station:DISL:CATA:1,2013-06-03T20:00:00Z,30.3085,-88.1395,0.0,1.7,191.0,99.0,'11111222,11111222,11144222' 
DISL,ioos:station:DISL:CATA:1,2013-06-03T20:30:00Z,30.3085,-88.1395,0.0,3.2,192.0,99.0,'11111222,11111222,11144222' 
DISL,ioos:station:DISL:CATA:1,2013-06-03T21:00:00Z,30.3085,-88.1395,0.0,4.8,184.0,99.0,'11111222,11111222,11144222' 
DISL,ioos:station:DISL:CATA:1,2013-06-03T21:30:00Z,30.3085,-88.1395,0.0,4.6,182.0,99.0,'11111222,11111222,11144222' 
DISL,ioos:station:DISL:CATA:1,2013-06-03T22:00:00Z,30.3085,-88.1395,0.0,3.9,174.0,99.0,'11111222,11111222,11144222' 
DISL,ioos:station:DISL:CATA:1,2013-06-03T22:30:00Z,30.3085,-88.1395,0.0,5.0,178.0,99.0,'11111222,11111222,11144222' 
DISL,ioos:station:DISL:CATA:1,2013-06-03T23:00:00Z,30.3085,-88.1395,0.0,4.4,177.0,99.0,'11111222,11111222,11144222' 
DISL,ioos:station:DISL:CATA:1,2013-06-03T23:30:00Z,30.3085,-88.1395,0.0,3.6,169.0,99.0,'11111222,11111222,11144222' 
DISL,ioos:station:DISL:CATA:1,2013-06-04T00:00:00Z,30.3085,-88.1395,0.0,4.3,174.0,99.0,'11111222,11111222,11144222' 
DISL,ioos:station:DISL:CATA:1,2013-06-04T00:30:00Z,30.3085,-88.1395,0.0,3.7,166.0,99.0,'11111222,11111222,11144222' 
DISL,ioos:station:DISL:CATA:1,2013-06-04T01:00:00Z,30.3085,-88.1395,0.0,2.7,167.0,99.0,'11111222,11111222,11144222' 
DISL,ioos:station:DISL:CATA:1,2013-06-04T01:30:00Z,30.3085,-88.1395,0.0,2.5,139.0,99.0,'11111222,11111222,11144222' 
DISL,ioos:station:DISL:CATA:1,2013-06-04T02:00:00Z,30.3085,-88.1395,0.0,4.2,157.0,99.0,'11111222,11111222,11144222' 
DISL,ioos:station:DISL:CATA:1,2013-06-04T02:30:00Z,30.3085,-88.1395,0.0,4.5,156.0,99.0,'11111222,11111222,11144222' 
DISL,ioos:station:DISL:CATA:1,2013-06-04T03:00:00Z,30.3085,-88.1395,0.0,4.6,155.0,99.0,'11111222,11111222,11144222' 
DISL,ioos:station:DISL:CATA:1,2013-06-04T03:30:00Z,30.3085,-88.1395,0.0,5.6,155.0,99.0,'11111222,11111222,11144222' 
DISL,ioos:station:DISL:CATA:1,2013-06-04T04:00:00Z,30.3085,-88.1395,0.0,6.5,168.0,99.0,'11111222,11111222,11144222' 
DISL,ioos:station:DISL:CATA:1,2013-06-04T04:30:00Z,30.3085,-88.1395,0.0,5.6,165.0,99.0,'11111222,11111222,11144222' 
DISL,ioos:station:DISL:CATA:1,2013-06-04T05:00:00Z,30.3085,-88.1395,0.0,5.9,172.0,99.0,'11111222,11111222,11144222' 
DISL,ioos:station:DISL:CATA:1,2013-06-04T05:30:00Z,30.3085,-88.1395,0.0,5.2,169.0,99.0,'11111222,11111222,11144222' 
DISL,ioos:station:DISL:CATA:1,2013-06-04T06:30:00Z,30.3085,-88.1395,0.0,5.1,166.0,99.0,'11111222,11111222,11144222' 
DISL,ioos:station:DISL:CATA:1,2013-06-04T07:00:00Z,30.3085,-88.1395,0.0,3.9,157.0,99.0,'11111222,11111222,11144222' 
DISL,ioos:station:DISL:CATA:1,2013-06-04T07:30:00Z,30.3085,-88.1395,0.0,2.9,165.0,99.0,'11111222,11111222,11144222' 
DISL,ioos:station:DISL:CATA:1,2013-06-04T08:00:00Z,30.3085,-88.1395,0.0,3.0,176.0,99.0,'11111222,11111222,11144222' 
DISL,ioos:station:DISL:CATA:1,2013-06-04T08:30:00Z,30.3085,-88.1395,0.0,2.8,143.0,99.0,'11111222,11111222,11144222' 
DISL,ioos:station:DISL:CATA:1,2013-06-04T09:00:00Z,30.3085,-88.1395,0.0,1.8,121.0,99.0,'11111222,11111222,11144222' 
DISL,ioos:station:DISL:CATA:1,2013-06-04T09:30:00Z,30.3085,-88.1395,0.0,2.3,148.0,99.0,'11111222,11111222,11144222' 
DISL,ioos:station:DISL:CATA:1,2013-06-04T10:00:00Z,30.3085,-88.1395,0.0,2.0,143.0,99.0,'11111222,11111222,11144222' 
DISL,ioos:station:DISL:CATA:1,2013-06-04T10:30:00Z,30.3085,-88.1395,0.0,1.7,130.0,99.0,'11111222,11111222,11144222' 
DISL,ioos:station:DISL:CATA:1,2013-06-04T11:00:00Z,30.3085,-88.1395,0.0,1.7,133.0,99.0,'11111222,11111222,11144222' 
DISL,ioos:station:DISL:CATA:1,2013-06-04T11:30:00Z,30.3085,-88.1395,0.0,2.0,108.0,99.0,'11111222,11111222,11144222' 
DISL,ioos:station:DISL:CATA:1,2013-06-04T12:00:00Z,30.3085,-88.1395,0.0,2.4,108.0,99.0,'11111222,11111222,11144222' 
DISL,ioos:station:DISL:CATA:1,2013-06-04T12:30:00Z,30.3085,-88.1395,0.0,3.1,36.0,99.0,'11111222,11111222,11144222' 
DISL,ioos:station:DISL:CATA:1,2013-06-04T13:00:00Z,30.3085,-88.1395,0.0,1.5,95.0,99.0,'11111222,11111222,11144222' 
DISL,ioos:station:DISL:CATA:1,2013-06-04T13:30:00Z,30.3085,-88.1395,0.0,3.3,100.0,99.0,'11111222,11111222,11144222' 
DISL,ioos:station:DISL:CATA:1,2013-06-04T14:00:00Z,30.3085,-88.1395,0.0,3.7,87.0,99.0,'11111222,11111222,11144222' 
DISL,ioos:station:DISL:CATA:1,2013-06-04T14:30:00Z,30.3085,-88.1395,0.0,3.9,93.0,99.0,'11111222,11111222,11144222' 
DISL,ioos:station:DISL:CATA:1,2013-06-04T15:00:00Z,30.3085,-88.1395,0.0,4.0,92.0,99.0,'11111222,11111222,11144222' 
DISL,ioos:station:DISL:CATA:1,2013-06-04T15:30:00Z,30.3085,-88.1395,0.0,3.8,99.0,99.0,'11111222,11111222,11144222' 
DISL,ioos:station:DISL:CATA:1,2013-06-04T16:00:00Z,30.3085,-88.1395,0.0,3.9,120.0,99.0,'11111222,11111222,11144222' 
DISL,ioos:station:DISL:CATA:1,2013-06-04T16:30:00Z,30.3085,-88.1395,0.0,3.4,125.0,99.0,'11111222,11111222,11144222' 
DISL,ioos:station:DISL:CATA:1,2013-06-04T17:00:00Z,30.3085,-88.1395,0.0,4.1,133.0,99.0,'11111222,11111222,11144222' 
DISL,ioos:station:DISL:CATA:1,2013-06-04T17:30:00Z,30.3085,-88.1395,0.0,4.7,139.0,99.0,'11111222,11111222,11144222' 
DISL,ioos:station:DISL:CATA:1,2013-06-04T18:00:00Z,30.3085,-88.1395,0.0,5.2,134.0,99.0,'11111222,11111222,11144222' 
DISL,ioos:station:DISL:CATA:1,2013-06-04T18:30:00Z,30.3085,-88.1395,0.0,5.6,139.0,99.0,'11111222,11111222,11144222' 
DISL,ioos:station:DISL:CATA:1,2013-06-04T19:00:00Z,30.3085,-88.1395,0.0,5.2,144.0,99.0,'11111222,11111222,11144222' 
DISL,ioos:station:DISL:CATA:1,2013-06-04T19:30:00Z,30.3085,-88.1395,0.0,5.3,145.0,99.0,'11111222,11111222,11144222' 
DISL,ioos:station:DISL:CATA:1,2013-06-04T20:00:00Z,30.3085,-88.1395,0.0,4.9,150.0,99.0,'11111222,11111222,11144222' 
DISL,ioos:station:DISL:CATA:1,2013-06-04T20:30:00Z,30.3085,-88.1395,0.0,5.2,162.0,99.0,'11111222,11111222,11144222' 
DISL,ioos:station:DISL:CATA:1,2013-06-04T21:00:00Z,30.3085,-88.1395,0.0,5.8,144.0,99.0,'11111222,11111222,11144222' 
DISL,ioos:station:DISL:CATA:1,2013-06-04T21:30:00Z,30.3085,-88.1395,0.0,6.2,148.0,99.0,'11111222,11111222,11144222' 
DISL,ioos:station:DISL:CATA:1,2013-06-04T22:00:00Z,30.3085,-88.1395,0.0,5.6,137.0,99.0,'11111222,11111222,11144222' 
DISL,ioos:station:DISL:CATA:1,2013-06-04T22:30:00Z,30.3085,-88.1395,0.0,6.9,136.0,99.0,'11111222,11111222,11144222' 
DISL,ioos:station:DISL:CATA:1,2013-06-04T23:00:00Z,30.3085,-88.1395,0.0,6.7,135.0,99.0,'11111222,11111222,11144222' 
DISL,ioos:station:DISL:CATA:1,2013-06-04T23:30:00Z,30.3085,-88.1395,0.0,6.1,146.0,99.0,'11111222,11111222,11144222' 
DISL,ioos:station:DISL:CATA:1,2013-06-05T00:00:00Z,30.3085,-88.1395,0.0,6.2,138.0,99.0,'11111222,11111222,11144222' 
DISL,ioos:station:DISL:CATA:1,2013-06-05T00:30:00Z,30.3085,-88.1395,0.0,5.4,132.0,99.0,'11111222,11111222,11144222' 
DISL,ioos:station:DISL:CATA:1,2013-06-05T01:00:00Z,30.3085,-88.1395,0.0,5.7,133.0,99.0,'11111222,11111222,11144222' 
DISL,ioos:station:DISL:CATA:1,2013-06-05T01:30:00Z,30.3085,-88.1395,0.0,6.3,151.0,99.0,'11111222,11111222,11144222' 
DISL,ioos:station:DISL:CATA:1,2013-06-05T02:00:00Z,30.3085,-88.1395,0.0,8.7,145.0,99.0,'11111222,11111222,11144222' 
DISL,ioos:station:DISL:CATA:1,2013-06-05T02:30:00Z,30.3085,-88.1395,0.0,8.4,148.0,99.0,'11111222,11111222,11144222' 
DISL,ioos:station:DISL:CATA:1,2013-06-05T03:00:00Z,30.3085,-88.1395,0.0,8.4,159.0,99.0,'11111222,11111222,11144222' 
DISL,ioos:station:DISL:CATA:1,2013-06-05T03:30:00Z,30.3085,-88.1395,0.0,8.8,165.0,99.0,'11111222,11111222,11144222' 
DISL,ioos:station:DISL:CATA:1,2013-06-05T04:00:00Z,30.3085,-88.1395,0.0,7.6,165.0,99.0,'11111222,11111222,11144222' 
DISL,ioos:station:DISL:CATA:1,2013-06-05T04:30:00Z,30.3085,-88.1395,0.0,7.4,162.0,99.0,'11111222,11111222,11144222' 
DISL,ioos:station:DISL:CATA:1,2013-06-05T05:00:00Z,30.3085,-88.1395,0.0,6.9,165.0,99.0,'11111222,11111222,11144222' 
DISL,ioos:station:DISL:CATA:1,2013-06-05T05:30:00Z,30.3085,-88.1395,0.0,6.8,158.0,99.0,'11111222,11111222,11144222' 
DISL,ioos:station:DISL:CATA:1,2013-06-05T06:30:00Z,30.3085,-88.1395,0.0,6.6,160.0,99.0,'11111222,11111222,11144222' 
DISL,ioos:station:DISL:CATA:1,2013-06-05T07:00:00Z,30.3085,-88.1395,0.0,5.5,155.0,99.0,'11111222,11111222,11144222' 
DISL,ioos:station:DISL:CATA:1,2013-06-05T07:30:00Z,30.3085,-88.1395,0.0,6.6,153.0,99.0,'11111222,11111222,11144222' 
DISL,ioos:station:DISL:CATA:1,2013-06-05T08:00:00Z,30.3085,-88.1395,0.0,6.2,152.0,99.0,'11111222,11111222,11144222' 